Location: Ecklingerode
(51.5036°N, 10.3122°E)
Time: 01:38:33
(UTC+00:00)

USA 306 - Pass Details

Date: 29 October 2020
Orbit: 569 x 577 km, 54.0° (Epoch: 22 November)

Event Time Altitude Azimuth Distance (km) Brightness Sun altitude
Rises 17:56:02 0° 292° (WNW) 2,787 7.7 -19.1°
Reaches altitude 10° 17:58:24 10° 285° (WNW) 1,885 6.7 -19.4°
Maximum altitude 18:02:24 39° 216° (SW) 864 4.0 -20.0°
Enters shadow 18:04:26 24° 163° (SSE) 1,212 4.3 -20.4°
